Overview Statistics Trail Chart Weather Telemetry Raw packets
 

This is the latest recevied weather packets stored in our database for station/object W0CHP-13. If no packets are shown the sender has not sent any weather packets the latest 10 day(s).

<< 37 38 39 40 41 42 43 >>
Time Temp. Humidity Pressure Rain* Wind** Luminosity Snow
1788133217 27.78° C 67% 1008.9 hPa 0 mm - 30 W/m² -
1788132615 28.33° C 66% 1008.9 hPa 0 mm - 36 W/m² -
1788132018 28.89° C 65% 1008.8 hPa 0 mm - 54 W/m² -
1788131417 28.89° C 64% 1008.9 hPa 0 mm - 45 W/m² -
1788130816 29.44° C 63% 1008.5 hPa 0 mm - 124 W/m² -
1788130215 29.44° C 63% 1008.6 hPa 0 mm - 204 W/m² -
1788129618 29.44° C 63% 1008.5 hPa 0 mm - 188 W/m² -
1788129016 28.89° C 65% 1008.6 hPa 0 mm - 162 W/m² -
1788128415 29.44° C 65% 1008.5 hPa 0 mm - 111 W/m² -
1788127817 28.89° C 65% 1008.8 hPa 0 mm - 82 W/m² -
1788127216 29.44° C 64% 1008.5 hPa 0 mm - 79 W/m² -
1788126618 30° C 61% 1008.2 hPa 0 mm - 113 W/m² -
1788126017 30° C 61% 1008.2 hPa 0 mm - 403 W/m² -
1788125415 30.56° C 60% 1008.2 hPa 0 mm - 196 W/m² -
1788124818 31.11° C 58% 1008.2 hPa 0 mm - 145 W/m² -
1788124216 30.56° C 59% 1008.2 hPa 0 mm - 262 W/m² -
1788123619 30.56° C 60% 1008.2 hPa 0 mm - 519 W/m² -
1788123016 30.56° C 59% 1008.2 hPa 0 mm - 172 W/m² -
1788122417 30.56° C 60% 1008.2 hPa 0 mm - 554 W/m² -
1788121815 30.56° C 59% 1008.5 hPa 0 mm - 502 W/m² -
1788121218 30.56° C 62% 1008.5 hPa 0 mm - 555 W/m² -
1788120616 29.44° C 64% 1008.6 hPa 0 mm - 614 W/m² -
1788120015 29.44° C 65% 1008.9 hPa 0 mm - 254 W/m² -
1788119417 29.44° C 64% 1008.8 hPa 0 mm - 265 W/m² -
1788118816 29.44° C 64% 1008.9 hPa 0 mm - 266 W/m² -

* Rain latest hour (hover to see other rain measurements)
** Current wind speed in m/s (hover to see current wind gust speed)